Location: Marcé
(47.5801°N, 0.3280°W)
Time: 11:05:18
(UTC+01:00)

deb Explorer IX - Pass Details

Date: 02 December 2021
Orbit: 544 x 1082 km, 38.8° (Epoch: 17 January)

Event Time Altitude Azimuth Distance (km) Brightness Sun altitude
Rises 13:43:17 0° 246° (WSW) 2,800 ? 19.4°
Reaches altitude 10° 13:45:55 10° 232° (SW) 1,851 ? 19.3°
Maximum altitude 13:49:19 24° 178° (S) 1,150 ? 19.2°
Drops below altitude 10° 13:52:38 10° 123° (ESE) 1,803 ? 19.0°
Sets 13:55:10 0° 109° (ESE) 2,709 ? 18.9°
